Location: Oak Glen
(34.0495°N, 116.9470°E)
Time: 19:21:52
(UTC-07:00)

Vanguard 1 - Pass Details

Date: 22 June 2018
Orbit: 650 x 3833 km, 34.2° (Epoch: 23 September)

Event Time Altitude Azimuth Distance (km) Brightness Sun altitude
Rises 14:01:22 0° 229° (SW) 3,901 - -0.9°
Exits shadow 14:01:24 - 229° (SW) 3,888 12.5 -0.9°
Reaches altitude 10° 14:03:37 10° 224° (SW) 3,203 12.1 -0.5°
Maximum altitude 14:11:37 55° 148° (SSE) 2,111 11.9 1.0°
Drops below altitude 10° 14:26:32 10° 76° (ENE) 5,731 16.0 3.7°
Sets 14:32:06 0° 74° (ENE) 7,194 16.9 4.8°
